RFF110 UKFF-UKOH

Flight info

Callsign RFF110
Flight time N/A
Altitude 38000
Route UKFF UKOH
Aircraft B738/L-SDE2E3FGHIRWXY/LB1

Departure

Time 2026-04-25 20:31
Airport Simferopol International Airport (UKFF)

Arrival

Time N/A
Airport Kherson International Airport (UKOH)
Time Latitude Longitude Altitude Speed Heading
2026-04-25 20:27 45.30585 33.57535 15572 ft 557 kts 304°
2026-04-25 20:27 45.32858 33.53053 15825 ft 561 kts 304°
2026-04-25 20:27 45.35142 33.48545 16084 ft 559 kts 304°
2026-04-25 20:27 45.37306 33.44285 16301 ft 501 kts 304°
2026-04-25 20:28 45.39249 33.40485 16598 ft 448 kts 304°
2026-04-25 20:28 45.40999 33.37081 16882 ft 407 kts 304°
2026-04-25 20:28 45.42618 33.33950 17040 ft 380 kts 304°
2026-04-25 20:28 45.44142 33.31014 17618 ft 334 kts 304°
2026-04-25 20:29 45.44291 33.30981 23018 ft 226 kts 113°
2026-04-25 20:29 45.43771 33.33397 23245 ft 273 kts 87°
2026-04-25 20:29 45.42955 33.36357 22386 ft 368 kts 112°
2026-04-25 20:29 45.41912 33.40200 21804 ft 462 kts 112°
2026-04-25 20:30 45.40660 33.44831 21240 ft 553 kts 111°
2026-04-25 20:30 45.37629 33.55966 19638 ft 685 kts 111°
2026-04-25 20:30 45.35879 33.62397 19161 ft 702 kts 112°
2026-04-25 20:31 45.34140 33.68765 19983 ft 679 kts 111°
2026-04-25 20:31 45.32463 33.74935 20905 ft 661 kts 111°
2026-04-25 20:31 45.30818 33.80990 21906 ft 651 kts 111°
2026-04-25 20:31 45.29197 33.86961 22942 ft 645 kts 111°
2026-04-25 20:32 45.27588 33.92885 23869 ft 642 kts 111°
2026-04-25 20:32 45.25702 33.98616 24561 ft 638 kts 128°
2026-04-25 20:32 45.22367 34.02536 25487 ft 621 kts 162°
2026-04-25 20:32 45.18150 34.03370 25223 ft 623 kts 186°
2026-04-25 20:33 45.13756 34.03062 24740 ft 637 kts 185°
2026-04-25 20:33 45.09300 34.02750 24257 ft 644 kts 185°
2026-04-25 20:33 45.04829 34.02438 24317 ft 641 kts 185°
2026-04-25 20:33 45.01880 34.02234 24328 ft 640 kts 185°
2026-04-25 20:34 44.95933 34.01825 24349 ft 639 kts 185°
2026-04-25 20:34 44.91495 34.01521 24361 ft 638 kts 185°
2026-04-25 20:34 44.87060 34.01218 24362 ft 638 kts 185°
2026-04-25 20:34 44.82683 34.00922 24357 ft 638 kts 185°
2026-04-25 20:35 44.78257 34.00585 23959 ft 621 kts 188°
2026-04-25 20:35 44.77636 34.00485 8406 ft 601 kts
2026-04-25 20:35 44.82530 34.00045 6014 ft 672 kts 345°
2026-04-25 20:35 44.86905 33.98643 5417 ft 625 kts 345°
2026-04-25 20:36 44.91086 33.97309 4492 ft 611 kts 345°
2026-04-25 20:36 44.95224 33.95986 3005 ft 609 kts 347°
2026-04-25 20:36 44.99439 33.95435 1958 ft 606 kts
2026-04-25 20:36 45.03579 33.96287 1356 ft 596 kts 10°
2026-04-25 20:37 45.07517 33.97430 1852 ft 562 kts 10°
2026-04-25 20:37 45.11313 33.98455 2221 ft 550 kts
2026-04-25 20:37 45.14959 33.98814 3044 ft 498 kts 323°
2026-04-25 20:37 45.14889 33.95066 3488 ft 449 kts 208°
2026-04-25 20:38 45.11955 33.93304 3523 ft 469 kts 204°
2026-04-25 20:38 45.08854 33.91541 3066 ft 492 kts 193°
2026-04-25 20:38 45.05869 33.93055 1382 ft 508 kts 112°
2026-04-25 20:38 45.04148 33.96678 958 ft 469 kts 150°
2026-04-25 20:39 45.02460 33.99468 3892 ft 88 kts 324°
2026-04-25 20:39 45.04242 33.97596 3096 ft 380 kts 322°
2026-04-25 20:39 45.06426 33.95304 3357 ft 401 kts 322°
2026-04-25 20:39 45.07946 33.93707 3377 ft 420 kts 322°
2026-04-25 20:40 45.11210 33.90266 3194 ft 452 kts 322°
2026-04-25 20:40 45.13768 33.87560 2998 ft 464 kts 322°
2026-04-25 20:40 45.16383 33.84785 2691 ft 475 kts 322°
2026-04-25 20:40 45.18999 33.82002 2859 ft 470 kts 322°
2026-04-25 20:41 45.20318 33.78176 2837 ft 448 kts 254°
2026-04-25 20:41 45.17964 33.75863 2444 ft 457 kts 171°
2026-04-25 20:41 45.15598 33.78731 2553 ft 465 kts 129°
2026-04-25 20:41 45.13566 33.82112 2571 ft 420 kts 131°
2026-04-25 20:42 45.11898 33.85142 2786 ft 361 kts 127°
2026-04-25 20:42 45.10569 33.87931 2807 ft 325 kts 129°
2026-04-25 20:42 45.08823 33.89452 2784 ft 286 kts 156°
2026-04-25 20:42 45.07091 33.90682 2513 ft 271 kts 155°
2026-04-25 20:43 45.05443 33.91851 2236 ft 255 kts 155°
2026-04-25 20:43 45.04133 33.93290 1736 ft 244 kts 108°
2026-04-25 20:43 45.03820 33.95669 985 ft 246 kts 104°
2026-04-25 20:43 45.03394 33.97978 622 ft 233 kts 105°
2026-04-25 20:44 45.03023 34.00025 888 ft 198 kts 111°
2026-04-25 20:44 45.02480 34.01725 1130 ft 200 kts 85°
2026-04-25 20:44 45.03399 34.03010 1809 ft 221 kts 344°
2026-04-25 20:44 45.03820 34.01368 1612 ft 250 kts 220°
2026-04-25 20:45 45.02807 33.99617 1033 ft 213 kts 296°
2026-04-25 20:45 45.03457 33.97780 649 ft 196 kts 287°
2026-04-25 20:45 45.03852 33.96065 772 ft 167 kts 286°
2026-04-25 20:45 45.04601 33.94942 968 ft 238 kts 341°
2026-04-25 20:46 45.06426 33.95478 1789 ft 303 kts 20°
2026-04-25 20:46 45.08358 33.96586 2014 ft 307 kts 22°
2026-04-25 20:46 45.10311 33.98044 2287 ft 341 kts 57°
2026-04-25 20:46 45.09160 34.01160 3055 ft 521 kts 176°
2026-04-25 20:47 45.05730 33.98384 2304 ft 580 kts 207°
2026-04-25 20:47 45.02378 33.96637 2457 ft 458 kts 201°
2026-04-25 20:47 45.00077 33.95492 6638 ft 149 kts 19°
2026-04-25 20:47 45.02571 33.97062 9905 ft 397 kts 20°
2026-04-25 20:48 45.04935 33.98505 10474 ft 354 kts 18°
2026-04-25 20:48 45.07136 33.99802 10515 ft 331 kts 18°
2026-04-25 20:48 45.09201 34.01033 10477 ft 315 kts 17°
2026-04-25 20:48 45.11173 34.02224 10388 ft 302 kts 18°
2026-04-25 20:49 45.13067 34.03381 10276 ft 291 kts 18°
2026-04-25 20:49 45.14896 34.04508 10163 ft 283 kts 17°
2026-04-25 20:49 45.16695 34.05618 10257 ft 304 kts 17°
2026-04-25 20:49 45.18643 34.06606 13016 ft 294 kts 12°
2026-04-25 20:50 45.17893 34.06640 5504 ft 487 kts 192°
2026-04-25 20:50 45.15366 34.04261 5262 ft 406 kts 225°
2026-04-25 20:50 45.13275 34.01789 3324 ft 393 kts 216°
2026-04-25 20:50 45.10937 34.00241 3264 ft 352 kts 205°
2026-04-25 20:51 45.08770 33.98959 3161 ft 324 kts 205°
2026-04-25 20:51 45.06746 33.97770 2961 ft 306 kts 204°
2026-04-25 20:51 45.04829 33.96651 2893 ft 292 kts 204°
2026-04-25 20:51 45.02990 33.95583 2844 ft 280 kts 204°
2026-04-25 20:52 45.01213 33.94556 2813 ft 270 kts 204°
2026-04-25 20:52 45.00045 33.94459 2992 ft 255 kts 153°
2026-04-25 20:52 44.99751 33.97303 2714 ft 237 kts 31°
2026-04-25 20:52 45.01039 33.98458 2707 ft 215 kts 36°
2026-04-25 20:53 45.02153 33.99843 2544 ft 213 kts 42°
2026-04-25 20:53 45.02092 34.01677 2364 ft 209 kts 146°
2026-04-25 20:53 45.00995 34.01263 2277 ft 196 kts 256°
2026-04-25 20:53 45.01068 33.99325 2445 ft 208 kts 276°
2026-04-25 20:54 45.01362 33.97259 2441 ft 225 kts 304°
2026-04-25 20:54 45.02743 33.96353 2144 ft 231 kts 14°
2026-04-25 20:54 45.03246 33.97974 1835 ft 194 kts 105°
2026-04-25 20:54 45.02828 33.99625 1937 ft 162 kts 116°
2026-04-25 20:55 45.02332 34.00901 1770 ft 142 kts 155°
2026-04-25 20:55 45.01113 33.99937 2001 ft 329 kts 252°
2026-04-25 20:55 45.01300 33.95692 2432 ft 555 kts 293°
2026-04-25 20:55 45.03908 33.95064 2671 ft 425 kts 62°
2026-04-25 20:56 45.02576 33.97162 2748 ft 306 kts 165°
2026-04-25 20:56 45.00646 33.97789 2957 ft 258 kts 182°
2026-04-25 20:56 45.00170 33.96375 2491 ft 210 kts 341°
2026-04-25 20:56 45.01684 33.96284 1430 ft 204 kts
2026-04-25 20:57 45.03113 33.96654 762 ft 210 kts 14°
2026-04-25 20:57 45.04352 33.97092 609 ft 134 kts 14°
2026-04-25 20:57 45.04984 33.97302 611 ft 62 kts 14°
2026-04-25 20:57 45.05371 33.97437 612 ft 58 kts 13°
2026-04-25 20:58 45.05757 33.97568 610 ft 36 kts 22°
2026-04-25 20:58 45.05890 33.97767 616 ft 18 kts 47°
2026-04-25 20:58 45.05870 33.97906 610 ft 16 kts 164°
2026-04-25 20:58 45.05768 33.97890 610 ft 14 kts 191°
2026-04-25 20:59 45.05647 33.97857 610 ft 23 kts 190°
2026-04-25 20:59 45.05451 33.97808 610 ft 33 kts 191°
2026-04-25 20:59 45.05195 33.97728 610 ft 42 kts 193°
2026-04-25 20:59 45.04889 33.97624 610 ft 47 kts 193°
2026-04-25 21:00 45.04574 33.97517 610 ft 46 kts 195°
2026-04-25 21:00 45.04471 33.97481 609 ft 45 kts 193°
2026-04-25 21:00 45.03721 33.97226 610 ft 32 kts 194°
2026-04-25 21:01 45.03560 33.97177 609 ft 17 kts 172°
2026-04-25 21:01 45.03504 33.97314 610 ft 18 kts 105°
2026-04-25 21:01 45.03477 33.97477 610 ft 16 kts 103°
2026-04-25 21:01 45.03450 33.97626 610 ft 15 kts 105°
2026-04-25 21:02 45.03392 33.97681 610 ft 10 kts 183°
2026-04-25 21:02 45.03369 33.97682 610 ft 1 kts 227°
2026-04-25 21:02 45.03375 33.97676 610 ft 1 kts 336°
2026-04-25 21:02 45.03376 33.97678 610 ft 0 kts
2026-04-25 21:04 45.03378 33.97678 610 ft 0 kts 11°